QPF
0.00 0.00 0.00 0.00 0.00 0.00 0.00 0.00 0.00 0.00 0.00 0.00 0.00 0.00 0.00 0.00 0.00 0.00 0.00 0.00 0.00 0.00 0.00 0.00 0.00 0.00 0.00 0.00 0.00 0.00 0.00 0.00 0.00 0.00 0.00 0.00 0.00 0.00 0.00 0.00 0.00 0.00 0.00 0.00
0.00 0.00 0.00 0.00 0.00 0.00 0.00 0.00 0.00 0.00 0.00 0.00 0.00 0.00 0.00 0.00 0.00 0.00 0.00 0.00 0.00 0.00 0.00 0.00 0.00 0.00 0.00 0.00 0.00 0.00 0.00 0.00 0.00 0.00 0.00 0.00 0.00 0.00 0.00 0.00 0.00 0.00 0.00 0.00
0.00 0.00 0.00 0.00 0.00 0.00 0.00 0.00 0.00 0.00 0.00 0.00 0.00 0.00 0.00 0.00 0.00 0.00 0.00 0.00 0.00 0.00 0.00 0.00 0.00 0.00 0.00 0.00 0.00 0.00 0.00 0.00 0.00 0.00 0.00 0.00 0.00 0.00 0.00 0.00 0.00 0.00 0.00 0.00
0.00 0.00 0.00 0.00 0.00 0.00 0.00 0.00 0.00 0.00 0.00 0.00 0.00 0.00 0.00 0.00 0.00 0.00 0.00 0.00 0.00 0.00 0.00 0.00 0.00 0.00 0.00 0.00 0.00 0.00 0.00 0.00 0.00 0.00 0.00 0.00 0.01 0.01 0.00 0.00 0.00 0.00 0.00 0.00
0.00 0.00 0.00 0.00 0.00 0.00 0.00 0.00 0.00 0.00 0.00 0.00 0.00 0.01 0.00 0.00 0.00 0.00 0.00 0.00 0.00 0.00 0.00 0.00 0.00 0.00 0.00 0.00 0.00 0.00 0.00 0.00 0.00 0.00 0.00 0.02 0.03 0.02 0.01 0.01 0.00 0.00 0.00 0.00
0.00 0.00 0.00 0.00 0.00 0.00 0.00 0.00 0.00 0.00 0.00 0.01 0.00 0.00 0.00 0.00 0.00 0.00 0.00 0.00 0.00 0.00 0.00 0.00 0.00 0.00 0.00 0.00 0.00 0.00 0.00 0.00 0.00 0.00 0.00 0.02 0.02 0.03 0.02 0.01 0.00 0.00 0.00 0.00
0.00 0.00 0.00 0.00 0.00 0.00 0.00 0.00 0.00 0.00 0.00 0.00 0.00 0.00 0.00 0.00 0.00 0.00 0.00 0.00 0.00 0.00 0.00 0.00 0.00 0.00 0.00 0.00 0.00 0.00 0.00 0.00 0.00 0.00 0.00 0.00 0.01 0.03 0.06 0.03 0.01 0.00 0.00 0.00
0.00 0.00 0.00 0.00 0.00 0.00 0.00 0.00 0.00 0.00 0.00 0.00 0.00 0.00 0.00 0.00 0.00 0.00 0.00 0.00 0.00 0.00 0.00 0.00 0.00 0.00 0.00 0.00 0.00 0.00 0.00 0.00 0.00 0.00 0.00 0.00 0.02 0.04 0.06 0.04 0.01 0.00 0.00 0.00
0.00 0.00 0.00 0.00 0.00 0.00 0.00 0.00 0.00 0.02 0.00 0.01 0.00 0.00 0.00 0.00 0.00 0.00 0.00 0.00 0.00 0.00 0.00 0.00 0.00 0.00 0.00 0.00 0.00 0.00 0.00 0.00 0.00 0.00 0.00 0.01 0.04 0.10 0.05 0.01 0.02 0.01 0.00 0.00
0.00 0.00 0.00 0.00 0.00 0.00 0.00 0.00 0.00 0.02 0.02 0.01 0.01 0.00 0.00 0.00 0.00 0.00 0.00 0.00 0.00 0.00 0.00 0.00 0.00 0.00 0.00 0.00 0.00 0.00 0.00 0.00 0.00 0.00 0.00 0.01 0.05 0.07 0.06 0.03 0.02 0.01 0.01 0.00
0.00 0.00 0.00 0.00 0.00 0.00 0.00 0.00 0.00 0.00 0.00 0.00 0.00 0.00 0.00 0.00 0.00 0.00 0.00 0.00 0.00 0.00 0.00 0.00 0.00 0.00 0.00 0.00 0.00 0.00 0.00 0.00 0.00 0.00 0.00 0.01 0.02 0.03 0.06 0.04 0.04 0.03 0.00 0.00
0.00 0.00 0.00 0.00 0.00 0.00 0.00 0.00 0.00 0.00 0.00 0.00 0.00 0.00 0.00 0.00 0.00 0.00 0.00 0.00 0.00 0.00 0.00 0.00 0.00 0.00 0.00 0.00 0.00 0.00 0.00 0.00 0.00 0.00 0.00 0.00 0.00 0.01 0.04 0.04 0.03 0.02 0.00 0.00
0.00 0.00 0.00 0.00 0.00 0.00 0.00 0.00 0.00 0.00 0.00 0.00 0.01 0.00 0.00 0.00 0.00 0.00 0.00 0.00 0.00 0.00 0.00 0.00 0.00 0.00 0.00 0.00 0.00 0.01 0.01 0.02 0.02 0.00 0.00 0.00 0.01 0.01 0.02 0.03 0.01 0.00 0.00 0.00
0.00 0.00 0.00 0.00 0.00 0.00 0.00 0.00 0.00 0.00 0.00 0.00 0.00 0.00 0.00 0.00 0.00 0.00 0.00 0.00 0.00 0.00 0.00 0.00 0.00 0.00 0.00 0.00 0.00 0.00 0.00 0.00 0.02 0.02 0.01 0.00 0.00 0.01 0.01 0.00 0.00 0.00 0.00 0.00
0.00 0.00 0.00 0.00 0.00 0.00 0.00 0.00 0.00 0.00 0.00 0.00 0.00 0.00 0.00 0.00 0.00 0.00 0.00 0.00 0.00 0.00 0.00 0.00 0.00 0.00 0.00 0.00 0.00 0.00 0.00 0.00 0.00 0.00 0.00 0.00 0.00 0.00 0.00 0.00 0.00 0.00 0.00 0.00
0.00 0.00 0.00 0.00 0.00 0.00 0.00 0.00 0.00 0.00 0.00 0.00 0.00 0.00 0.00 0.00 0.00 0.00 0.00 0.00 0.00 0.00 0.00 0.00 0.00 0.00 0.00 0.00 0.00 0.00 0.00 0.00 0.00 0.00 0.00 0.00 0.00 0.00 0.00 0.00 0.00 0.00 0.00 0.00
0.00 0.00 0.00 0.00 0.00 0.00 0.00 0.00 0.00 0.00 0.00 0.00 0.00 0.00 0.00 0.00 0.00 0.00 0.00 0.00 0.00 0.00 0.00 0.00 0.00 0.00 0.00 0.00 0.00 0.00 0.00 0.00 0.00 0.00 0.00 0.00 0.00 0.00 0.00 0.00 0.00 0.00 0.00 0.00
0.00 0.00 0.00 0.00 0.00 0.00 0.00 0.00 0.00 0.00 0.00 0.00 0.01 0.00 0.00 0.00 0.00 0.00 0.00 0.00 0.00 0.00 0.00 0.00 0.00 0.00 0.00 0.00 0.00 0.00 0.00 0.00 0.00 0.00 0.00 0.00 0.00 0.00 0.00 0.00 0.00 0.00 0.00 0.00
0.00 0.00 0.00 0.00 0.00 0.00 0.00 0.00 0.00 0.00 0.00 0.00 0.00 0.00 0.00 0.00 0.00 0.00 0.00 0.00 0.00 0.00 0.00 0.00 0.00 0.00 0.00 0.00 0.00 0.00 0.00 0.00 0.00 0.00 0.00 0.00 0.00 0.00 0.00 0.00 0.00 0.00 0.00 0.00
0.00 0.00 0.00 0.00 0.00 0.00 0.00 0.00 0.00 0.00 0.00 0.00 0.00 0.00 0.00 0.00 0.00 0.00 0.00 0.00 0.00 0.00 0.00 0.00 0.00 0.00 0.00 0.00 0.00 0.00 0.00 0.00 0.00 0.00 0.00 0.00 0.00 0.00 0.00 0.00 0.00 0.00 0.00 0.00
0.00 0.00 0.00 0.00 0.00 0.00 0.00 0.00 0.00 0.00 0.00 0.00 0.00 0.00 0.00 0.00 0.00 0.00 0.00 0.00 0.00 0.00 0.00 0.00 0.00 0.00 0.00 0.00 0.00 0.00 0.00 0.01 0.00 0.00 0.00 0.00 0.00 0.00 0.00 0.00 0.00 0.00 0.00 0.00
0.00 0.00 0.00 0.00 0.00 0.00 0.00 0.00 0.00 0.00 0.00 0.00 0.00 0.00 0.00 0.00 0.00 0.00 0.00 0.00 0.00 0.00 0.00 0.00 0.00 0.00 0.02 0.01 0.00 0.00 0.00 0.00 0.00 0.00 0.00 0.00 0.00 0.00 0.00 0.00 0.00 0.00 0.00 0.00
0.00 0.00 0.00 0.00 0.00 0.00 0.00 0.00 0.00 0.00 0.00 0.00 0.00 0.00 0.00 0.00 0.00 0.00 0.00 0.00 0.00 0.00 0.00 0.00 0.00 0.00 0.00 0.00 0.00 0.00 0.00 0.00 0.00 0.00 0.00 0.00 0.00 0.00 0.00 0.00 0.00 0.00 0.00 0.00
0.00 0.00 0.00 0.00 0.00 0.00 0.00 0.00 0.00 0.00 0.00 0.00 0.00 0.00 0.00 0.00 0.00 0.01 0.00 0.00 0.00 0.01 0.00 0.00 0.00 0.00 0.00 0.00 0.00 0.00 0.00 0.00 0.00 0.00 0.00 0.00 0.00 0.00 0.00 0.00 0.00 0.00 0.00 0.00
0.00 0.00 0.00 0.00 0.00 0.00 0.00 0.00 0.00 0.00 0.00 0.00 0.00 0.00 0.00 0.00 0.00 0.00 0.00 0.00 0.00 0.01 0.01 0.00 0.00 0.00 0.00 0.00 0.00 0.00 0.00 0.00 0.00 0.00 0.00 0.00 0.00 0.00 0.00 0.00 0.00 0.00 0.00 0.00
0.00 0.00 0.00 0.00 0.00 0.00 0.00 0.00 0.00 0.00 0.00 0.00 0.00 0.00 0.00 0.00 0.00 0.00 0.00 0.00 0.00 0.00 0.00 0.00 0.00 0.00 0.00 0.00 0.00 0.00 0.00 0.00 0.00 0.00 0.00 0.00 0.00 0.00 0.00 0.00 0.00 0.00 0.00 0.00
MSLP
1012.74 1012.87 1012.54 1012.28 1012.08 1011.48 1011.70 1011.72 1011.66 1011.59 1010.99 1010.15 1008.60 1005.73 1004.11 1004.93 1004.55 1003.71 1003.43 1003.13 1002.80 1002.68 1002.59 1002.77 1002.85 1003.09 1003.61 1004.05 1004.46 1004.76 1005.53 1006.36 1007.57 1008.29 1009.01 1010.14 1010.73 1011.81 1012.92 1013.43 1014.20 1014.81 1015.39 1016.28
1012.56 1011.81 1011.77 1011.91 1012.20 1012.23 1012.04 1011.73 1011.60 1011.03 1010.69 1010.35 1008.77 1004.90 1002.86 1004.22 1003.17 1002.67 1002.35 1002.44 1002.18 1001.79 1001.71 1001.86 1001.91 1002.35 1002.54 1002.54 1003.29 1004.16 1004.66 1005.23 1006.17 1007.29 1007.78 1008.62 1009.89 1011.35 1012.25 1013.18 1013.99 1014.47 1015.00 1015.53
1011.19 1010.90 1011.20 1011.67 1011.95 1012.04 1011.81 1011.82 1011.52 1011.21 1010.87 1010.21 1008.93 1004.77 1002.32 1002.29 1001.83 1002.43 1002.47 1002.20 1002.07 1001.97 1001.30 1001.34 1001.82 1001.82 1001.89 1002.37 1002.36 1002.51 1003.33 1004.38 1005.26 1006.38 1007.55 1008.36 1009.88 1011.14 1012.05 1012.72 1013.41 1014.05 1014.73 1015.29
1011.21 1010.88 1010.82 1011.23 1011.32 1011.56 1010.98 1010.99 1010.87 1011.01 1011.11 1009.78 1009.55 1006.33 1001.64 1001.60 1000.01 1002.21 1002.00 1002.14 1002.32 1001.92 1001.61 1001.63 1001.91 1001.94 1001.74 1001.66 1001.57 1002.21 1002.80 1003.63 1004.46 1005.66 1006.63 1007.05 1007.55 1009.02 1009.95 1011.46 1012.65 1013.69 1014.36 1014.91
1010.68 1010.69 1010.72 1010.81 1010.58 1010.75 1010.70 1010.77 1010.78 1010.73 1010.87 1010.54 1006.59 1008.73 1003.47 1000.48 1000.45 1001.63 1002.67 1002.80 1003.21 1003.54 1003.11 1002.35 1002.28 1002.17 1001.53 1001.30 1001.54 1001.38 1002.72 1003.54 1004.25 1004.42 1005.50 1006.63 1007.14 1007.94 1009.10 1010.74 1012.00 1012.96 1013.84 1014.45
1011.01 1011.01 1010.94 1010.45 1010.38 1010.45 1010.93 1011.07 1011.02 1010.84 1010.93 1009.79 1006.59 1008.53 1005.57 1002.67 1002.46 1002.57 1003.72 1004.88 1005.01 1004.49 1004.09 1003.13 1002.47 1002.29 1002.00 1000.97 1001.04 1001.09 1001.27 1002.40 1003.42 1003.95 1004.32 1005.40 1006.17 1006.78 1008.14 1009.61 1010.96 1012.11 1013.16 1014.18
1011.41 1011.02 1010.72 1010.73 1010.76 1010.91 1011.25 1011.68 1011.17 1010.61 1010.31 1008.40 1007.26 1006.83 1004.86 1004.42 1004.71 1006.11 1005.95 1005.82 1005.65 1005.24 1004.39 1003.71 1002.68 1001.81 1001.93 1001.40 1000.66 1000.84 1000.42 1001.03 1002.37 1002.91 1003.70 1004.01 1005.19 1006.02 1006.68 1007.93 1009.47 1011.15 1012.31 1013.35
1012.04 1011.82 1011.42 1011.67 1011.56 1011.48 1011.64 1011.75 1012.04 1011.04 1009.72 1008.46 1008.29 1006.15 1004.83 1006.25 1006.72 1007.05 1007.25 1006.65 1005.89 1005.24 1004.71 1003.28 1002.80 1002.72 1001.96 1001.53 1000.34 999.83 999.91 1000.03 1001.08 1002.28 1002.84 1003.64 1004.47 1005.93 1006.69 1007.61 1008.64 1009.96 1011.74 1012.34
1013.41 1012.85 1012.51 1012.34 1012.04 1012.03 1012.33 1012.39 1013.11 1012.60 1011.28 1010.15 1008.14 1006.60 1006.27 1007.41 1007.86 1007.46 1006.90 1006.80 1006.01 1005.09 1004.24 1004.24 1002.75 1002.70 1001.89 1001.08 999.90 998.95 998.96 999.30 1000.30 1001.18 1002.74 1003.66 1004.25 1005.78 1006.59 1007.33 1008.80 1009.90 1011.35 1012.75
1014.60 1013.98 1013.54 1013.09 1012.44 1012.87 1012.68 1013.40 1013.55 1013.56 1012.39 1010.41 1009.15 1008.71 1008.12 1008.26 1008.38 1008.12 1007.72 1006.90 1006.33 1005.93 1004.99 1004.25 1003.59 1002.03 1002.05 1001.24 999.25 998.83 998.79 998.88 1000.11 1001.08 1002.38 1003.21 1003.90 1005.40 1007.04 1007.99 1008.82 1009.88 1010.86 1012.12
1014.63 1014.72 1013.93 1013.43 1013.12 1013.13 1013.55 1013.79 1014.73 1015.17 1014.89 1013.57 1011.93 1010.43 1009.27 1009.37 1009.22 1008.42 1007.95 1006.80 1006.11 1005.94 1005.04 1004.21 1003.72 1002.65 1002.30 1001.66 1000.04 999.72 999.22 999.19 1000.11 1001.20 1002.44 1003.28 1003.97 1005.01 1006.48 1007.99 1009.22 1010.18 1011.12 1012.36
1015.31 1015.45 1014.91 1014.08 1014.06 1013.74 1013.98 1014.87 1015.45 1015.79 1015.66 1015.39 1014.44 1011.86 1010.44 1009.45 1008.47 1008.17 1007.58 1006.46 1005.99 1005.74 1004.53 1003.74 1003.75 1003.05 1002.40 1001.80 1001.05 1000.73 1000.17 999.82 1000.19 1001.12 1002.15 1003.10 1004.04 1005.12 1006.34 1007.64 1008.89 1009.94 1011.86 1013.29
1015.47 1016.10 1015.78 1014.37 1014.79 1014.72 1014.79 1015.45 1015.59 1016.24 1016.35 1014.86 1013.90 1011.07 1009.73 1009.04 1008.20 1007.69 1007.32 1006.28 1005.57 1005.08 1004.36 1003.42 1003.16 1002.54 1001.77 1001.32 1001.15 1001.03 1001.09 1000.91 1001.30 1001.91 1002.49 1003.38 1004.27 1005.34 1006.36 1007.56 1008.59 1010.00 1011.47 1012.96
1015.52 1016.06 1016.22 1015.62 1014.50 1014.74 1014.89 1014.82 1015.22 1016.06 1015.78 1014.26 1012.51 1010.92 1009.83 1008.62 1008.12 1007.14 1006.77 1005.90 1005.63 1004.77 1003.61 1002.92 1002.26 1001.96 1001.27 1001.23 1001.23 1001.39 1001.56 1001.53 1001.84 1002.54 1003.11 1003.73 1004.53 1005.33 1006.16 1007.23 1008.27 1009.29 1010.44 1012.00
1015.96 1016.36 1016.40 1015.91 1015.30 1014.92 1015.05 1014.63 1014.24 1014.73 1014.34 1014.46 1011.96 1011.04 1009.57 1008.86 1008.14 1007.26 1006.87 1005.99 1005.40 1004.99 1003.76 1002.82 1002.07 1001.95 1001.26 1001.03 1001.11 1001.51 1001.37 1001.98 1002.34 1003.02 1003.52 1004.15 1004.82 1005.58 1006.43 1007.56 1008.61 1009.50 1010.34 1012.24
1016.27 1016.69 1016.77 1015.82 1015.81 1015.41 1015.07 1014.42 1013.54 1013.24 1013.05 1012.61 1011.78 1010.52 1009.75 1008.98 1008.51 1007.59 1007.04 1006.46 1005.39 1004.86 1004.48 1003.37 1002.13 1002.02 1001.55 1000.61 1001.04 1001.05 1001.61 1001.97 1002.56 1003.41 1004.01 1004.51 1005.17 1005.91 1006.85 1007.61 1008.72 1009.98 1010.87 1011.76
1016.52 1017.02 1017.34 1016.25 1015.94 1015.80 1014.82 1013.41 1012.84 1012.37 1012.19 1012.21 1011.27 1010.20 1010.32 1009.51 1008.79 1007.84 1007.06 1006.24 1005.65 1004.60 1003.97 1003.31 1002.77 1002.17 1001.07 1000.15 1000.25 1000.66 1001.43 1002.39 1002.30 1003.60 1003.96 1004.60 1005.63 1006.23 1007.01 1007.86 1008.53 1010.00 1011.22 1012.12
1016.74 1016.69 1017.64 1016.86 1016.52 1015.40 1013.09 1013.09 1013.10 1012.65 1011.91 1011.58 1011.54 1011.32 1010.78 1010.39 1009.17 1008.21 1007.23 1005.86 1005.51 1004.93 1004.00 1003.78 1003.15 1001.98 1000.85 999.93 999.86 1000.52 1001.04 1002.14 1002.71 1003.46 1004.38 1004.48 1005.13 1006.39 1007.33 1007.89 1009.02 1010.12 1011.22 1012.45
1016.38 1016.89 1017.39 1017.42 1016.22 1014.45 1012.86 1012.70 1012.60 1012.48 1010.92 1011.47 1011.61 1011.24 1010.67 1010.06 1008.67 1007.64 1006.99 1006.52 1005.92 1005.10 1003.85 1003.33 1002.93 1001.88 1001.26 1000.37 1000.44 1000.90 1001.40 1001.53 1002.72 1003.28 1004.14 1004.66 1005.72 1006.19 1007.14 1007.99 1009.09 1010.10 1011.29 1012.42
1016.60 1016.91 1016.72 1017.17 1016.44 1013.93 1011.90 1012.10 1012.31 1012.21 1010.57 1010.32 1010.30 1009.81 1009.86 1009.44 1008.10 1006.75 1006.32 1006.28 1005.34 1004.39 1003.52 1003.19 1003.06 1002.57 1001.96 1001.00 1001.06 1001.44 1001.75 1001.57 1002.73 1003.35 1003.94 1004.65 1005.37 1006.45 1007.27 1008.12 1008.93 1009.99 1011.12 1012.22
1016.61 1016.74 1016.30 1016.38 1015.70 1013.50 1011.91 1011.40 1011.73 1011.39 1010.16 1009.59 1009.55 1009.27 1009.02 1009.08 1008.75 1007.58 1006.75 1006.18 1004.88 1004.01 1003.27 1002.67 1002.87 1002.73 1002.01 1001.21 1001.27 1001.72 1001.74 1001.35 1002.36 1003.63 1004.15 1004.94 1005.61 1006.38 1007.31 1008.51 1009.52 1010.17 1011.33 1012.60
1014.76 1015.64 1015.75 1015.99 1015.35 1013.43 1010.99 1011.15 1010.85 1009.67 1009.28 1009.33 1009.06 1008.91 1008.65 1008.46 1007.76 1007.21 1006.71 1005.76 1004.35 1003.16 1002.58 1002.66 1002.61 1002.57 1002.21 1001.60 1001.75 1002.14 1002.11 1002.18 1003.10 1003.42 1004.06 1005.33 1005.96 1006.35 1007.36 1008.56 1009.75 1010.86 1011.64 1012.85
1014.02 1013.50 1013.79 1013.91 1012.22 1010.89 1010.35 1009.42 1009.13 1009.29 1009.24 1008.90 1008.69 1008.45 1008.45 1007.98 1007.14 1006.52 1006.12 1004.91 1004.18 1003.44 1002.74 1002.66 1002.55 1002.59 1002.40 1002.00 1001.75 1002.16 1002.36 1002.35 1003.34 1003.95 1004.42 1005.37 1006.21 1007.02 1007.78 1008.51 1009.74 1010.78 1011.72 1012.62
1012.93 1012.63 1012.57 1012.86 1010.04 1009.72 1009.68 1009.24 1008.81 1008.75 1008.59 1008.38 1008.38 1008.17 1008.15 1007.43 1006.65 1006.05 1005.67 1004.82 1004.40 1004.06 1003.50 1003.14 1003.01 1002.42 1002.40 1002.39 1001.65 1002.23 1002.80 1003.09 1003.92 1004.55 1005.05 1005.70 1006.47 1007.31 1008.25 1009.05 1009.77 1010.31 1011.62 1012.73
1011.85 1011.90 1011.43 1010.74 1009.05 1008.87 1008.68 1008.26 1008.19 1008.05 1008.04 1007.97 1007.88 1007.86 1007.64 1007.03 1006.23 1006.07 1005.42 1004.98 1004.63 1004.29 1004.03 1003.69 1003.29 1002.74 1002.26 1002.04 1002.20 1002.76 1003.31 1003.25 1004.36 1005.01 1005.39 1005.92 1006.78 1007.40 1008.54 1009.43 1009.65 1010.16 1011.01 1011.35
1010.67 1009.89 1010.36 1008.63 1007.91 1008.22 1007.25 1007.54 1007.64 1007.75 1007.30 1007.42 1007.37 1006.97 1006.76 1006.57 1005.94 1005.71 1005.34 1005.05 1004.84 1004.54 1004.24 1003.77 1003.31 1002.71 1003.03 1003.23 1002.97 1003.38 1003.78 1003.94 1004.66 1005.19 1005.69 1006.08 1006.69 1007.80 1008.66 1009.42 1010.33 1010.55 1010.99 1012.07
Thickness
5641 5637 5637 5641 5644 5654 5646 5638 5634 5638 5649 5650 5663 5690 5710 5705 5706 5712 5714 5719 5723 5724 5727 5724 5723 5721 5717 5713 5710 5709 5701 5695 5684 5679 5671 5660 5655 5644 5633 5631 5625 5620 5616 5609
5632 5634 5640 5638 5633 5630 5630 5627 5626 5636 5638 5634 5649 5686 5714 5701 5707 5714 5717 5716 5718 5722 5721 5721 5720 5716 5716 5717 5710 5702 5698 5692 5684 5675 5671 5662 5651 5638 5631 5622 5616 5613 5610 5606
5635 5639 5635 5629 5625 5619 5619 5613 5616 5616 5624 5630 5634 5671 5706 5710 5716 5709 5707 5710 5708 5708 5715 5716 5709 5711 5711 5706 5709 5707 5699 5688 5679 5669 5659 5652 5638 5629 5621 5615 5610 5606 5601 5597
5622 5629 5628 5621 5616 5616 5613 5620 5617 5612 5603 5608 5621 5622 5689 5701 5718 5696 5698 5696 5692 5701 5704 5701 5696 5695 5698 5700 5700 5697 5692 5682 5673 5660 5653 5650 5648 5635 5630 5614 5604 5597 5593 5589
5615 5614 5611 5608 5613 5612 5606 5609 5605 5603 5593 5591 5641 5578 5660 5705 5697 5690 5674 5679 5671 5669 5674 5680 5678 5677 5684 5686 5684 5686 5673 5665 5660 5658 5649 5640 5638 5633 5624 5609 5598 5592 5587 5583
5601 5600 5599 5604 5605 5603 5595 5589 5587 5587 5579 5573 5626 5580 5616 5660 5665 5662 5655 5640 5641 5648 5651 5658 5661 5661 5664 5674 5672 5671 5668 5655 5647 5645 5645 5638 5634 5630 5617 5606 5595 5587 5581 5574
5586 5587 5590 5590 5583 5582 5576 5565 5561 5567 5561 5574 5611 5587 5606 5633 5639 5604 5606 5613 5619 5624 5630 5633 5640 5646 5644 5648 5656 5652 5654 5649 5637 5635 5634 5635 5629 5623 5618 5608 5597 5582 5576 5569
5571 5570 5572 5566 5565 5563 5560 5558 5549 5540 5560 5572 5585 5570 5608 5590 5586 5584 5579 5588 5600 5605 5609 5618 5619 5617 5623 5623 5635 5639 5638 5638 5632 5623 5626 5623 5619 5609 5605 5597 5591 5581 5567 5566
5542 5551 5552 5548 5548 5551 5545 5541 5532 5520 5535 5528 5560 5576 5586 5566 5557 5560 5565 5562 5570 5579 5589 5587 5599 5595 5598 5604 5613 5620 5625 5627 5622 5619 5610 5607 5606 5596 5593 5587 5577 5566 5561 5550
5508 5522 5531 5530 5535 5529 5528 5522 5519 5516 5519 5526 5532 5527 5538 5542 5532 5534 5533 5539 5543 5544 5554 5562 5567 5578 5571 5575 5596 5602 5608 5613 5609 5602 5595 5596 5594 5585 5573 5567 5562 5557 5554 5541
5503 5504 5523 5521 5515 5515 5512 5510 5490 5479 5473 5479 5478 5501 5519 5499 5506 5512 5517 5524 5527 5526 5530 5537 5543 5547 5545 5549 5568 5577 5588 5595 5588 5585 5580 5577 5577 5573 5564 5555 5548 5544 5538 5525
5479 5476 5481 5504 5494 5496 5495 5470 5458 5449 5448 5439 5434 5461 5495 5495 5500 5499 5503 5514 5513 5512 5523 5527 5521 5520 5525 5536 5543 5549 5558 5570 5572 5570 5566 5563 5559 5558 5552 5545 5540 5535 5518 5498
5463 5454 5461 5494 5474 5463 5459 5452 5446 5425 5420 5431 5431 5458 5499 5495 5493 5496 5493 5503 5509 5507 5509 5516 5514 5520 5523 5527 5528 5534 5534 5543 5548 5547 5548 5546 5544 5541 5538 5533 5529 5521 5505 5488
5453 5445 5449 5454 5469 5451 5448 5456 5444 5416 5416 5431 5440 5449 5473 5484 5480 5489 5492 5495 5495 5499 5506 5512 5516 5515 5524 5520 5513 5509 5520 5524 5530 5531 5531 5530 5529 5529 5529 5523 5520 5515 5509 5497
5434 5426 5430 5437 5438 5436 5431 5436 5440 5427 5428 5405 5436 5442 5464 5466 5471 5477 5477 5485 5487 5491 5498 5505 5510 5510 5518 5518 5514 5503 5507 5508 5513 5514 5516 5516 5516 5515 5513 5510 5505 5501 5497 5484
5411 5410 5405 5396 5417 5409 5409 5422 5429 5431 5430 5427 5429 5435 5459 5456 5454 5460 5461 5464 5476 5481 5482 5491 5503 5502 5506 5518 5510 5507 5501 5500 5500 5498 5500 5502 5502 5500 5499 5498 5490 5483 5478 5476
5397 5386 5378 5400 5403 5393 5393 5423 5428 5428 5432 5425 5420 5439 5427 5430 5433 5441 5443 5448 5458 5470 5475 5481 5490 5494 5504 5516 5510 5505 5502 5494 5496 5483 5491 5491 5488 5489 5487 5484 5481 5468 5464 5460
5380 5383 5372 5380 5383 5366 5424 5419 5412 5408 5416 5420 5405 5401 5406 5401 5417 5426 5432 5441 5446 5452 5463 5467 5476 5488 5498 5512 5510 5504 5501 5495 5491 5484 5479 5483 5481 5476 5471 5472 5464 5459 5454 5448
5378 5377 5364 5363 5369 5394 5413 5414 5402 5394 5414 5403 5386 5390 5394 5398 5412 5423 5426 5426 5429 5436 5450 5458 5464 5477 5486 5497 5496 5495 5494 5497 5489 5484 5478 5480 5472 5470 5465 5463 5457 5453 5447 5440
5369 5373 5367 5352 5353 5370 5413 5398 5393 5386 5398 5403 5400 5403 5398 5400 5402 5418 5423 5414 5419 5431 5442 5449 5452 5460 5469 5479 5482 5482 5484 5489 5480 5476 5475 5475 5470 5461 5458 5456 5451 5445 5440 5434
5346 5351 5354 5352 5354 5377 5401 5394 5387 5380 5403 5406 5400 5401 5399 5394 5396 5402 5406 5402 5417 5429 5434 5443 5440 5444 5454 5464 5471 5470 5471 5483 5473 5466 5465 5463 5461 5456 5451 5444 5438 5436 5431 5423
5369 5345 5348 5336 5331 5343 5397 5384 5382 5400 5401 5396 5398 5395 5394 5395 5397 5398 5397 5399 5417 5430 5436 5427 5427 5429 5438 5449 5454 5455 5459 5463 5456 5456 5455 5448 5448 5450 5443 5435 5428 5422 5417 5410
5365 5372 5362 5352 5369 5387 5383 5395 5394 5389 5388 5391 5391 5393 5391 5392 5396 5402 5398 5407 5411 5415 5422 5424 5422 5423 5424 5434 5441 5442 5446 5451 5446 5444 5445 5440 5437 5435 5431 5427 5419 5414 5408 5404
5364 5364 5362 5354 5399 5387 5380 5379 5382 5383 5385 5388 5388 5389 5387 5391 5400 5401 5397 5406 5405 5403 5407 5413 5415 5420 5418 5422 5434 5429 5428 5434 5431 5430 5431 5430 5428 5424 5419 5415 5412 5408 5398 5391
5371 5361 5365 5366 5385 5383 5378 5380 5379 5379 5378 5379 5382 5382 5385 5390 5399 5396 5400 5403 5400 5399 5401 5404 5409 5416 5420 5423 5421 5417 5416 5425 5420 5418 5422 5422 5419 5417 5409 5404 5405 5402 5395 5395
5371 5372 5358 5368 5386 5373 5383 5379 5374 5367 5374 5373 5375 5383 5389 5389 5396 5396 5399 5400 5398 5398 5400 5404 5407 5413 5410 5410 5415 5410 5411 5414 5412 5413 5413 5413 5412 5404 5399 5394 5390 5389 5388 5381